Rexburg, ID

11:55 PM MDT on September 25, 2017 (GMT -0600)
Rexburg-Madison County

Weather History for KRXE - February, 2014

Change the Weather History Date:

Saturday, February 22, 2014

  Actual Average Record
Temperature  
Mean Temperature 24 °F 24 °F  
Max Temperature 33 °F 35 °F 52 °F (2007)
Min Temperature 14 °F 14 °F -9 °F (2010)
Degree Days  
Heating Degree Days 41 41  
Month to date heating degree days 903 960  
Since 1 July heating degree days 5633 5737  
Cooling Degree Days 0 0  
Month to date cooling degree days 0 0  
Year to date cooling degree days 0 0  
Moisture  
Dew Point 17 °F    
Average Humidity 67    
Maximum Humidity 84    
Minimum Humidity 49    
Precipitation  
Precipitation 0.00 in 0.03 in 0.15 in (1985)
Month to date precipitation 0.50 0.65  
Year to date precipitation 1.36 1.39  
Sea Level Pressure  
Sea Level Pressure 29.97 in    
Wind  
Wind Speed 6 mph (NE)    
Max Wind Speed 14 mph    
Max Gust Speed 17 mph    
Visibility 10 miles    
Events      
T = Trace of Precipitation, MM = Missing Value Source: NWS Daily Summary

Daily Weather History Graph

Daily Weather History Graph

Search for Another Location

Airport or City:

Trip Planner

Search our weather history database for the weather conditions in past years. The results will help you decide how hot, cold, wet, or windy it might be!

Date:

Astronomy

Feb. 22, 2014 Rise Set
Actual Time 7:15 AM MST 6:06 PM MST
Civil Twilight 6:46 AM MST 6:35 PM MST
Nautical Twilight 6:12 AM MST 7:09 PM MST
Astronomical Twilight 5:39 AM MST 7:42 PM MST
Moon 1:19 AM MST (2/22) 11:15 AM MST (2/22)
Length of Visible Light 11h 49m
Length of Day
10h 51m
Waning Gibbous, 49% of the Moon is Illuminated
Feb 22
Waning Gibbous
Mar 1
New
Mar 8
First Quarter
Mar 16
Full
Mar 23
Last Quarter

Hourly Weather History & Observations

Time (MST) Temp. Windchill Dew Point Humidity Pressure Visibility Wind Dir Wind Speed Gust Speed Precip Events Conditions
12:53 AM 26.1 °F 18.4 °F 19.0 °F 75% 29.93 in 10.0 mi South 6.9 mph - N/A   Clear
1:53 AM 26.1 °F 17.6 °F 19.0 °F 75% 29.92 in 10.0 mi South 8.1 mph - N/A   Clear
2:53 AM 26.1 °F 19.4 °F 17.1 °F 69% 29.91 in 10.0 mi South 5.8 mph - N/A   Clear
3:53 AM 25.0 °F 17.1 °F 19.0 °F 78% 29.90 in 10.0 mi South 6.9 mph - N/A   Clear
4:53 AM 25.0 °F 16.3 °F 19.0 °F 78% 29.91 in 10.0 mi SSW 8.1 mph - N/A   Mostly Cloudy
5:53 AM 21.9 °F 17.2 °F 18.0 °F 85% 29.93 in 10.0 mi North 3.5 mph - N/A   Clear
6:53 AM 15.1 °F 6.4 °F 10.9 °F 84% 29.97 in 10.0 mi NE 5.8 mph - N/A   Clear
7:53 AM 15.1 °F 7.7 °F 10.9 °F 84% 30.00 in 10.0 mi ENE 4.6 mph - N/A   Clear
8:53 AM 19.0 °F 12.3 °F 14.0 °F 81% 30.00 in 10.0 mi NE 4.6 mph - N/A   Clear
9:53 AM 23.0 °F 15.8 °F 15.1 °F 72% 29.99 in 10.0 mi NNE 5.8 mph - N/A   Clear
10:53 AM 27.0 °F 19.5 °F 18.0 °F 69% 30.00 in 10.0 mi NE 6.9 mph - N/A   Clear
11:53 AM 28.0 °F 24.2 °F 19.0 °F 69% 30.01 in 10.0 mi North 3.5 mph - N/A   Overcast
12:53 PM 30.0 °F 23.2 °F 17.1 °F 59% 29.99 in 10.0 mi NE 6.9 mph - N/A   Overcast
1:53 PM 30.9 °F 22.8 °F 14.0 °F 50% 29.96 in 10.0 mi NE 9.2 mph - N/A   Partly Cloudy
2:53 PM 32.0 °F 24.2 °F 15.1 °F 50% 29.95 in 10.0 mi NE 9.2 mph - N/A   Clear
3:53 PM 30.9 °F 22.8 °F 14.0 °F 50% 29.96 in 10.0 mi NE 9.2 mph - N/A   Overcast
4:53 PM 28.0 °F 19.3 °F 17.1 °F 63% 29.97 in 10.0 mi NE 9.2 mph - N/A   Partly Cloudy
5:53 PM 27.0 °F 18.0 °F 18.0 °F 69% 29.99 in 10.0 mi NE 9.2 mph - N/A   Clear
6:53 PM 26.1 °F 17.6 °F 18.0 °F 71% 30.02 in 10.0 mi NE 8.1 mph - N/A   Clear
7:53 PM 25.0 °F 16.3 °F 19.9 °F 81% 30.02 in 10.0 mi ENE 8.1 mph - N/A   Clear
8:53 PM 25.0 °F 18.1 °F 19.0 °F 78% 30.02 in 10.0 mi NE 5.8 mph - N/A   Clear
9:53 PM 24.1 °F 19.7 °F 19.0 °F 81% 30.02 in 10.0 mi NE 3.5 mph - N/A   Mostly Cloudy
10:53 PM 24.1 °F 19.7 °F 19.0 °F 81% 30.00 in 10.0 mi NE 3.5 mph - N/A   Overcast
11:53 PM 21.9 °F - 18.0 °F 85% 30.02 in 10.0 mi Calm Calm - N/A   Mostly Cloudy